Tracking 19149 objects as of 22-Apr-2018
HD Live streaming from Space Station
objects crossing your sky now

NADEZHDA 5

Track NADEZHDA 5 now!
10-day predictions
NADEZHDA 5 is classified as:


NORAD ID: 25567
Int'l Code: 1998-072A
Perigee: 980.0 km
Apogee: 1,020.3 km
Inclination: 82.9 °
Period: 105.0 minutes
Semi major axis: 7371 km
RCS: 2.009 m2 (large)
Launch date: December 10, 1998
Source: Commonwealth of Independent States (former USSR) (CIS)
Launch site: PLESETSK MISSILE AND SPACE COMPLEX (PKMTR)

Out of service
aabbcc
Your satellite tracking list
Your tracking list is empty




NASA's NSSDC Master Catalog

Two Line Element Set (TLE):
1 25567U 98072A   18111.97369059 +.00000028 +00000-0 +13501-4 0  9995
2 25567 082.9441 121.0684 0027347 092.6522 294.1241 13.71833499969326
Source of the keplerian elements: AFSPC